TimeEDT,TemperatureF,Dew PointF,Humidity,Sea Level PressureIn,VisibilityMPH,Wind Direction,Wind SpeedMPH,Gust SpeedMPH,PrecipitationIn,Events,Conditions,WindDirDegrees,DateUTC
12:51 AM,60.1,54.0,80,29.90,10.0,NE,15.0,-,N/A,,Overcast,50,2012-10-28 04:51:00
1:51 AM,60.1,52.0,75,29.90,10.0,ENE,18.4,-,N/A,,Overcast,60,2012-10-28 05:51:00
2:51 AM,60.1,52.0,75,29.89,10.0,NE,16.1,-,N/A,,Overcast,50,2012-10-28 06:51:00
3:51 AM,59.0,48.9,69,29.88,10.0,ENE,18.4,-,N/A,,Overcast,60,2012-10-28 07:51:00
4:51 AM,59.0,46.0,62,29.88,10.0,NE,17.3,-,N/A,,Overcast,50,2012-10-28 08:51:00
5:51 AM,57.9,44.1,60,29.88,10.0,NE,23.0,-,N/A,,Overcast,50,2012-10-28 09:51:00
6:51 AM,57.0,46.0,67,29.87,10.0,NE,20.7,29.9,N/A,,Mostly Cloudy,50,2012-10-28 10:51:00
7:12 AM,57.2,46.4,67,29.87,10.0,NE,19.6,26.5,N/A,,Overcast,40,2012-10-28 11:12:00
7:51 AM,57.0,46.9,69,29.88,10.0,NE,19.6,28.8,N/A,,Overcast,50,2012-10-28 11:51:00
8:51 AM,57.9,48.0,70,29.88,10.0,NE,23.0,29.9,N/A,,Overcast,50,2012-10-28 12:51:00
9:51 AM,57.9,48.9,72,29.88,10.0,NE,20.7,29.9,N/A,,Overcast,50,2012-10-28 13:51:00
10:51 AM,59.0,48.9,69,29.86,10.0,NE,19.6,-,N/A,,Overcast,40,2012-10-28 14:51:00
11:51 AM,59.0,50.0,72,29.84,10.0,NE,23.0,29.9,N/A,,Overcast,50,2012-10-28 15:51:00
12:51 PM,59.0,50.0,72,29.81,10.0,NE,21.9,28.8,N/A,,Overcast,50,2012-10-28 16:51:00
1:51 PM,59.0,50.0,72,29.77,10.0,NE,20.7,28.8,N/A,,Overcast,50,2012-10-28 17:51:00
2:51 PM,59.0,50.0,72,29.75,10.0,NE,19.6,26.5,N/A,,Mostly Cloudy,50,2012-10-28 18:51:00
3:51 PM,57.9,52.0,81,29.75,8.0,NE,19.6,31.1,0.00,,Light Drizzle,50,2012-10-28 19:51:00
4:51 PM,59.0,50.0,72,29.73,10.0,NE,19.6,27.6,0.00,,Light Drizzle,40,2012-10-28 20:51:00
5:51 PM,59.0,51.1,75,29.73,10.0,NE,25.3,31.1,0.00,,Light Drizzle,40,2012-10-28 21:51:00
6:51 PM,59.0,50.0,72,29.72,10.0,NE,23.0,32.2,0.00,,Light Drizzle,40,2012-10-28 22:51:00
7:51 PM,59.0,50.0,72,29.71,10.0,NE,26.5,35.7,0.00,,Overcast,50,2012-10-28 23:51:00
8:51 PM,57.9,50.0,75,29.70,10.0,NE,29.9,41.4,N/A,,Overcast,50,2012-10-29 00:51:00
9:51 PM,57.9,48.9,72,29.68,10.0,NE,24.2,38.0,N/A,,Mostly Cloudy,40,2012-10-29 01:51:00
10:51 PM,57.0,48.9,74,29.68,10.0,NE,28.8,38.0,N/A,,Overcast,50,2012-10-29 02:51:00
11:51 PM,57.0,48.0,72,29.66,10.0,NE,17.3,28.8,N/A,,Overcast,40,2012-10-29 03:51:00